KD7KCN-5 Weather Reports


time (UTC)temp
C
wind
direction
speed
KPH
gust
KPH
rain 1hr
cm
rain 24hr
cm
rain mn
cm
humidity
%
barometer
mb
20260506212144 20 50 20.9 27.4 0.00 0.00 0.00 28 1015.9
20260506211144 22 79 11.3 22.5 0.00 0.00 0.00 27 1015.9
20260506210144 21 27 19.3 32.2 0.00 0.00 0.00 29 1016.1
20260506205144 21 32 16.1 25.7 0.00 0.00 0.00 28 1016.0
20260506204145 21 40 25.7 35.4 0.00 0.00 0.00 29 1016.0
20260506203144 20 154 8.0 24.1 0.00 0.00 0.00 30 1016.3
20260506202144 20 173 11.3 22.5 0.00 0.00 0.00 32 1016.4
20260506201144 19 59 1.6 17.7 0.00 0.00 0.00 34 1016.4
20260506200144 19 153 12.9 22.5 0.00 0.00 0.00 32 1016.5
20260506195145 18 220 1.6 9.7 0.00 0.00 0.00 33 1016.7
20260506194146 18 177 6.4 17.7 0.00 0.00 0.00 34 1016.6
20260506193144 18 147 9.7 24.1 0.00 0.00 0.00 32 1016.6
20260506192145 18 160 19.3 29.0 0.00 0.00 0.00 35 1016.6
20260506191144 18 166 14.5 27.4 0.00 0.00 0.00 34 1016.5
20260506190144 18 0 0.0 19.3 0.00 0.00 0.00 34 1016.6
20260506185144 19 180 6.4 16.1 0.00 0.00 0.00 34 1016.6
20260506184144 18 0 0.0 11.3 0.00 0.00 0.00 34 1016.8
20260506183145 18 176 1.6 25.7 0.00 0.00 0.00 32 1016.9
20260506182144 20 114 17.7 25.7 0.00 0.00 0.00 32 1016.8
20260506165146 17 350 1.6 9.7 0.00 0.00 0.00 39 1016.1
20260506164144 18 34 8.0 22.5 0.00 0.00 0.00 38 1016.1
20260506163145 17 339 14.5 30.6 0.00 0.00 0.00 38 1016.0
20260506162145 17 28 8.0 27.4 0.00 0.00 0.00 40 1016.1
20260506161144 17 352 9.7 25.7 0.00 0.00 0.00 41 1016.2
20260506155145 16 348 3.2 14.5 0.00 0.00 0.00 45 1016.3
20260506154145 15 0 0.0 11.3 0.00 0.00 0.00 44 1016.5
20260506152145 15 0 0.0 6.4 0.00 0.00 0.00 48 1016.3
20260506151146 15 58 3.2 9.7 0.00 0.00 0.00 45 1016.4
20260506145145 14 106 1.6 9.7 0.00 0.00 0.00 42 1016.3
20260506144145 13 113 1.6 9.7 0.00 0.00 0.00 43 1016.1
20260506143145 13 0 0.0 4.8 0.00 0.00 0.00 45 1016.1
20260506142145 13 0 0.0 4.8 0.00 0.00 0.00 44 1015.9
20260506141145 12 0 0.0 1.6 0.00 0.00 0.00 46 1014.9
20260506140145 12 0 0.0 0.0 0.00 0.00 0.00 46 1014.8
20260506135145 11 0 0.0 0.0 0.00 0.00 0.00 48 1014.8
20260506134145 11 0 0.0 0.0 0.00 0.00 0.00 48 1014.5
20260506133145 10 0 0.0 0.0 0.00 0.00 0.00 47 1014.3
20260506132145 10 0 0.0 0.0 0.00 0.00 0.00 48 1014.2
20260506131146 10 0 0.0 0.0 0.00 0.00 0.00 47 1014.1
20260506130145 10 0 0.0 0.0 0.00 0.00 0.00 49 1014.0
20260506124145 8 0 0.0 0.0 0.00 0.00 0.00 50 1014.0
20260506123145 8 0 0.0 0.0 0.00 0.00 0.00 50 1013.7
20260506122145 9 0 0.0 0.0 0.00 0.00 0.00 48 1013.7
20260506121145 8 0 0.0 0.0 0.00 0.00 0.00 48 1013.5
20260506120145 8 0 0.0 0.0 0.00 0.00 0.00 49 1013.4
20260506115145 8 0 0.0 0.0 0.00 0.00 0.00 49 1013.3
20260506114145 8 0 0.0 1.6 0.00 0.00 0.00 48 1013.3
20260506113145 8 0 0.0 0.0 0.00 0.00 0.00 47 1013.2
20260506112145 8 0 0.0 0.0 0.00 0.00 0.00 48 1013.2
20260506111147 8 0 0.0 8.0 0.00 0.00 0.00 49 1013.1
20260506110145 8 179 3.2 8.0 0.00 0.00 0.00 50 1013.1
20260506105145 8 178 6.4 9.7 0.00 0.00 0.00 49 1012.9
20260506103145 9 0 0.0 8.0 0.00 0.00 0.00 46 1012.8
20260506102145 9 0 0.0 0.0 0.00 0.00 0.00 45 1012.9
20260506100145 9 229 1.6 4.8 0.00 0.00 0.00 45 1012.6
20260506095145 9 0 0.0 6.4 0.00 0.00 0.00 45 1012.7
20260506093145 9 0 0.0 8.0 0.00 0.00 0.00 45 1012.6
20260506092145 9 174 3.2 9.7 0.00 0.00 0.00 44 1012.6
20260506090145 10 166 6.4 9.7 0.00 0.00 0.00 43 1012.6
20260506085145 10 159 4.8 9.7 0.00 0.00 0.00 43 1012.6
20260506083145 10 0 0.0 9.7 0.00 0.00 0.00 42 1012.5
20260506082145 10 152 3.2 8.0 0.00 0.00 0.00 41 1012.6
20260506080146 10 0 0.0 4.8 0.00 0.00 0.00 40 1012.4
20260506073146 12 0 0.0 25.7 0.00 0.00 0.00 37 1012.5
20260506072146 12 232 8.0 32.2 0.00 0.00 0.00 37 1012.3
20260506071147 12 245 22.5 33.8 0.00 0.00 0.00 37 1012.1
20260506070146 12 231 25.7 38.6 0.00 0.00 0.00 37 1012.1
20260506062146 11 222 12.9 22.5 0.00 0.00 0.00 38 1012.3
20260506061147 11 0 0.0 8.0 0.00 0.00 0.00 37 1012.5
20260506060146 11 0 0.0 8.0 0.00 0.00 0.00 37 1012.3
20260506051148 11 0 0.0 0.0 0.00 0.00 0.00 34 1012.1
20260506050146 11 0 0.0 0.0 0.00 0.00 0.00 34 1012.2
20260506044147 11 0 0.0 3.2 0.00 0.00 0.00 34 1012.0
20260506043146 11 0 0.0 3.2 0.00 0.00 0.00 35 1011.8
20260506042146 11 0 0.0 3.2 0.00 0.00 0.00 35 1011.7
20260506041147 12 0 0.0 3.2 0.00 0.00 0.00 34 1011.5
20260506040146 12 0 0.0 11.3 0.00 0.00 0.00 33 1011.2
20260506035146 12 0 0.0 12.9 0.00 0.00 0.00 33 1011.0
20260506034147 12 0 0.0 8.0 0.00 0.00 0.00 33 1010.8
20260506033147 12 183 1.6 9.7 0.00 0.00 0.00 33 1010.7
20260506032146 12 190 3.2 11.3 0.00 0.00 0.00 33 1010.6
20260506031148 12 172 1.6 8.0 0.00 0.00 0.00 32 1010.3
20260506030147 12 0 0.0 1.6 0.00 0.00 0.00 32 1010.1
20260506025146 13 0 0.0 1.6 0.00 0.00 0.00 32 1009.9
20260506024148 13 0 0.0 0.0 0.00 0.00 0.00 31 1009.9
20260506023146 13 221 1.6 12.9 0.00 0.00 0.00 31 1009.7
20260506022147 13 222 8.0 17.7 0.00 0.00 0.00 31 1009.4
20260506021147 13 0 0.0 22.5 0.00 0.00 0.00 31 1009.2
20260506020147 14 227 12.9 24.1 0.00 0.00 0.00 30 1009.0
20260506015146 14 234 8.0 16.1 0.00 0.00 0.00 30 1009.0
20260506014150 15 204 1.6 9.7 0.00 0.00 0.00 31 1008.9
20260506013146 15 169 3.2 20.9 0.00 0.00 0.00 30 1008.8
20260506012147 15 249 6.4 20.9 0.00 0.00 0.00 29 1008.7
20260506011147 15 0 0.0 16.1 0.00 0.00 0.00 30 1008.6
20260506010146 16 196 6.4 17.7 0.00 0.00 0.00 29 1008.6
20260506005146 15 212 4.8 22.5 0.00 0.00 0.00 30 1008.6
20260506004148 15 175 3.2 19.3 0.00 0.00 0.00 31 1008.5
20260506003147 15 185 9.7 33.8 0.00 0.00 0.00 31 1008.4
20260506002147 15 157 20.9 27.4 0.00 0.00 0.00 30 1008.4
20260506001147 16 163 9.7 25.7 0.00 0.00 0.00 30 1008.3
20260506000147 16 209 11.3 27.4 0.00 0.00 0.00 30 1008.3
20260505235148 15 214 4.8 29.0 0.00 0.00 0.00 30 1008.2
20260505234147 16 140 3.2 22.5 0.00 0.00 0.00 30 1008.2
20260505233147 15 132 6.4 25.7 0.00 0.00 0.00 31 1008.1
20260505232147 15 162 12.9 22.5 0.00 0.00 0.00 31 1008.3
20260505231150 15 199 19.3 30.6 0.00 0.00 0.00 29 1008.2
20260505230147 16 171 12.9 25.7 0.00 0.00 0.00 30 1008.3
20260505225147 15 160 9.7 22.5 0.00 0.00 0.00 30 1008.4
20260505224147 14 128 6.4 25.7 0.00 0.00 0.00 31 1008.5
20260505223147 14 203 3.2 16.1 0.00 0.00 0.00 31 1008.5
20260505222150 15 148 14.5 33.8 0.00 0.00 0.00 29 1008.4
20260505221147 16 131 14.5 37.0 0.00 0.00 0.00 29 1008.6
20260505220147 16 151 19.3 37.0 0.00 0.00 0.00 28 1008.7
20260505215147 15 197 14.5 32.2 0.00 0.00 0.00 31 1008.8
20260505214147 14 148 24.1 33.8 0.00 0.00 0.00 32 1009.0
20260505213147 15 150 22.5 32.2 0.00 0.00 0.00 31 1008.8
20260505212147 15 118 16.1 29.0 0.00 0.00 0.00 33 1008.9